User: anonymous   Login
Location: Writing-on-Stone Provincial Park
(49.0825°N, 111.6163°W)
Time: 10:41:45
(UTC-06:00)
Language:

BREEZE-M DEB (TANK) - Orbit

View from above orbital plane
View from above orbital plane
View from above satellite
View from above satellite

Ground track
Ground track

The orbit data is extracted from the following two-line orbital elements,

1 29649U 06056B   18109.84017853 +.00002596 +00000-0 +39854-3 0  9996
2 29649 049.5364 008.6784 5383627 353.4921 001.7104 05.00576050203126
Epoch (UTC): 19 April 2018 20:09:51
Eccentricity: 0.5383627
inclination: 49.5364°
perigee height: 285 km
apogee height: 15828 km
right ascension of ascending node: 8.6784°
argument of perigee: 353.4921°
revolutions per day: 5.00576050
mean anomaly at epoch: 1.7104°
orbit number at epoch: 20312

The dashed part of the orbit path shows where the satellite is in the earth's shadow,  

DLR